| time (UTC) | temp F | wind direction | speed MPH | gust MPH | rain 1hr in | rain 24hr in | rain mn in | humidity % | barometer mb |
| 20260904123032 | 53 | 46 | 5.0 | 10.0 | 0.00 | 0.00 | 0.00 | 60 | 1010.3 |
| 20260904121532 | 51 | 49 | 6.0 | 9.0 | 0.00 | 0.00 | 0.00 | 62 | 1010.3 |
| 20260904120028 | 52 | 67 | 6.0 | 9.0 | 0.00 | 0.00 | 0.00 | 61 | 1010.4 |
| 20260904114527 | 55 | 61 | 7.0 | 10.0 | 0.00 | 0.00 | 0.00 | 56 | 1010.4 |
| 20260904113038 | 59 | 85 | 11.0 | 14.0 | 0.00 | 0.00 | 0.00 | 48 | 1010.3 |
| 20260904111535 | 58 | 96 | 9.0 | 13.0 | 0.00 | 0.00 | 0.00 | 50 | 1010.4 |
| 20260904110025 | 59 | 102 | 11.0 | 16.0 | 0.00 | 0.00 | 0.00 | 49 | 1010.4 |
| 20260904104523 | 59 | 91 | 11.0 | 15.0 | 0.00 | 0.00 | 0.00 | 49 | 1010.4 |
| 20260904103020 | 57 | 98 | 11.0 | 15.0 | 0.00 | 0.00 | 0.00 | 51 | 1010.7 |
| 20260904101520 | 56 | 103 | 11.0 | 15.0 | 0.00 | 0.00 | 0.00 | 53 | 1010.9 |
| 20260904100020 | 56 | 103 | 11.0 | 16.0 | 0.00 | 0.00 | 0.00 | 54 | 1010.9 |
| 20260904094529 | 56 | 96 | 12.0 | 16.0 | 0.00 | 0.01 | 0.00 | 55 | 1010.9 |
| 20260904093016 | 54 | 92 | 10.0 | 13.0 | 0.00 | 0.01 | 0.00 | 58 | 1011.1 |
| 20260904091514 | 55 | 93 | 9.0 | 12.0 | 0.00 | 0.01 | 0.00 | 57 | 1011.2 |
| 20260904090012 | 52 | 88 | 6.0 | 8.0 | 0.00 | 0.01 | 0.00 | 61 | 1011.4 |
| 20260904084508 | 53 | 86 | 6.0 | 8.0 | 0.00 | 0.01 | 0.00 | 59 | 1011.4 |
| 20260904083005 | 55 | 48 | 3.0 | 6.0 | 0.00 | 0.01 | 0.00 | 56 | 1011.6 |
| 20260904081505 | 55 | 48 | 4.0 | 6.0 | 0.00 | 0.01 | 0.00 | 55 | 1011.6 |
| 20260904080100 | 56 | 31 | 2.0 | 4.0 | 0.00 | 0.01 | 0.00 | 53 | 1011.7 |
| 20260904074557 | 57 | 31 | 4.0 | 5.0 | 0.00 | 0.01 | 0.00 | 52 | 1011.7 |
| 20260904073109 | 57 | 31 | 3.0 | 5.0 | 0.00 | 0.01 | 0.00 | 52 | 1011.9 |
| 20260904071555 | 57 | 239 | 3.0 | 4.0 | 0.00 | 0.01 | 0.00 | 52 | 1011.8 |
| 20260904070055 | 57 | 239 | 2.0 | 3.0 | 0.00 | 0.01 | 0.00 | 53 | 1011.8 |
| 20260904064552 | 58 | 239 | 1.0 | 3.0 | 0.00 | 0.01 | 0.00 | 51 | 1012.0 |
| 20260904063103 | 57 | 239 | 2.0 | 3.0 | 0.00 | 0.01 | 0.00 | 52 | 1012.1 |
| 20260904061548 | 57 | 239 | 1.0 | 3.0 | 0.00 | 0.01 | 0.00 | 53 | 1012.4 |
| 20260904060058 | 58 | 239 | 2.0 | 4.0 | 0.00 | 0.01 | 0.00 | 51 | 1012.5 |
| 20260904054555 | 59 | 239 | 2.0 | 3.0 | 0.00 | 0.01 | 0.01 | 50 | 1012.6 |
| 20260904053046 | 57 | 239 | 1.0 | 3.0 | 0.00 | 0.01 | 0.01 | 54 | 1012.5 |
| 20260904051543 | 56 | 239 | 0.0 | 0.0 | 0.00 | 0.01 | 0.01 | 56 | 1012.7 |
| 20260904050042 | 56 | 239 | 1.0 | 3.0 | 0.00 | 0.01 | 0.01 | 59 | 1012.4 |
| 20260904044547 | 56 | 239 | 2.0 | 5.0 | 0.00 | 0.01 | 0.01 | 57 | 1012.2 |
| 20260904043044 | 56 | 239 | 2.0 | 3.0 | 0.00 | 0.01 | 0.01 | 56 | 1012.4 |
| 20260904041540 | 55 | 239 | 2.0 | 3.0 | 0.00 | 0.01 | 0.01 | 56 | 1012.6 |
| 20260904040041 | 54 | 239 | 0.0 | 2.0 | 0.00 | 0.01 | 0.01 | 58 | 1012.4 |
| 20260904034539 | 53 | 239 | 2.0 | 4.0 | 0.00 | 0.01 | 0.01 | 60 | 1012.6 |
| 20260904033138 | 53 | 239 | 3.0 | 5.0 | 0.00 | 0.01 | 0.01 | 60 | 1012.7 |
| 20260904031539 | 53 | 239 | 3.0 | 5.0 | 0.00 | 0.01 | 0.01 | 61 | 1012.5 |
| 20260904030037 | 53 | 239 | 3.0 | 5.0 | 0.00 | 0.01 | 0.01 | 61 | 1012.5 |
| 20260904024539 | 53 | 239 | 3.0 | 4.0 | 0.00 | 0.02 | 0.01 | 61 | 1012.3 |
| 20260904023033 | 55 | 239 | 3.0 | 7.0 | 0.00 | 0.02 | 0.01 | 58 | 1012.2 |
| 20260904021533 | 58 | 239 | 3.0 | 9.0 | 0.00 | 0.02 | 0.01 | 53 | 1011.9 |
| 20260904020032 | 60 | 257 | 8.0 | 14.0 | 0.00 | 0.02 | 0.01 | 49 | 1011.9 |
| 20260904014553 | 60 | 279 | 8.0 | 13.0 | 0.00 | 0.02 | 0.01 | 49 | 1011.8 |
| 20260904013033 | 61 | 279 | 8.0 | 11.0 | 0.00 | 0.02 | 0.01 | 46 | 1012.0 |
| 20260904011530 | 64 | 251 | 8.0 | 11.0 | 0.00 | 0.02 | 0.01 | 43 | 1011.9 |
| 20260904010030 | 65 | 252 | 10.0 | 15.0 | 0.00 | 0.02 | 0.01 | 40 | 1012.0 |
| 20260904004527 | 66 | 222 | 8.0 | 15.0 | 0.00 | 0.09 | 0.01 | 40 | 1011.7 |
| 20260904003028 | 66 | 231 | 11.0 | 16.0 | 0.00 | 0.09 | 0.01 | 39 | 1011.7 |
| 20260904001526 | 66 | 228 | 13.0 | 19.0 | 0.00 | 0.09 | 0.01 | 39 | 1011.7 |
| 20260904000025 | 66 | 241 | 16.0 | 23.0 | 0.00 | 0.09 | 0.01 | 37 | 1011.6 |
| 20260903234534 | 67 | 252 | 14.0 | 25.0 | 0.00 | 0.12 | 0.01 | 39 | 1011.4 |
| 20260903233030 | 67 | 234 | 16.0 | 24.0 | 0.00 | 0.12 | 0.01 | 40 | 1011.5 |
| 20260903231523 | 67 | 240 | 16.0 | 26.0 | 0.00 | 0.12 | 0.01 | 40 | 1011.4 |
| 20260903230028 | 68 | 217 | 15.0 | 25.0 | 0.00 | 0.12 | 0.01 | 40 | 1011.3 |
| 20260903224518 | 68 | 223 | 16.0 | 27.0 | 0.00 | 0.12 | 0.01 | 39 | 1011.1 |
| 20260903223016 | 69 | 225 | 16.0 | 24.0 | 0.00 | 0.12 | 0.01 | 42 | 1010.8 |
| 20260903221515 | 69 | 227 | 14.0 | 25.0 | 0.00 | 0.12 | 0.01 | 43 | 1010.7 |
| 20260903220016 | 69 | 234 | 15.0 | 24.0 | 0.00 | 0.12 | 0.01 | 43 | 1010.6 |
| 20260903214523 | 69 | 252 | 14.0 | 28.0 | 0.00 | 0.12 | 0.01 | 41 | 1010.5 |
| 20260903213019 | 69 | 249 | 12.0 | 26.0 | 0.00 | 0.12 | 0.01 | 42 | 1010.5 |
| 20260903211510 | 69 | 261 | 16.0 | 23.0 | 0.00 | 0.12 | 0.01 | 43 | 1010.3 |
| 20260903210015 | 69 | 240 | 17.0 | 25.0 | 0.00 | 0.12 | 0.01 | 40 | 1010.4 |
| 20260903204509 | 69 | 223 | 17.0 | 26.0 | 0.00 | 0.12 | 0.01 | 41 | 1010.3 |
| 20260903203008 | 68 | 264 | 16.0 | 25.0 | 0.00 | 0.12 | 0.01 | 43 | 1010.3 |
| 20260903201506 | 68 | 246 | 18.0 | 29.0 | 0.00 | 0.12 | 0.01 | 43 | 1010.3 |
| 20260903200005 | 66 | 237 | 17.0 | 26.0 | 0.00 | 0.12 | 0.01 | 44 | 1010.3 |
| 20260903194507 | 67 | 234 | 18.0 | 28.0 | 0.00 | 0.12 | 0.01 | 43 | 1010.3 |
| 20260903193003 | 67 | 239 | 17.0 | 26.0 | 0.00 | 0.12 | 0.01 | 45 | 1010.2 |
| 20260903191501 | 67 | 223 | 19.0 | 27.0 | 0.00 | 0.12 | 0.01 | 44 | 1010.3 |
| 20260903190001 | 66 | 217 | 16.0 | 28.0 | 0.00 | 0.12 | 0.01 | 44 | 1010.3 |
| 20260903184602 | 66 | 221 | 15.0 | 24.0 | 0.00 | 0.12 | 0.01 | 47 | 1010.1 |
| 20260903183102 | 67 | 239 | 17.0 | 24.0 | 0.00 | 0.12 | 0.01 | 47 | 1010.1 |
| 20260903181556 | 64 | 193 | 22.0 | 27.0 | 0.00 | 0.12 | 0.01 | 50 | 1009.7 |
| 20260903180057 | 65 | 223 | 21.0 | 27.0 | 0.00 | 0.12 | 0.01 | 49 | 1009.8 |
| 20260903174556 | 65 | 244 | 15.0 | 22.0 | 0.00 | 0.12 | 0.01 | 51 | 1010.1 |
| 20260903173055 | 64 | 248 | 14.0 | 24.0 | 0.00 | 0.12 | 0.01 | 49 | 1010.2 |
| 20260903171559 | 64 | 245 | 16.0 | 25.0 | 0.00 | 0.12 | 0.01 | 49 | 1010.2 |
| 20260903170050 | 64 | 244 | 19.0 | 27.0 | 0.00 | 0.12 | 0.01 | 49 | 1010.0 |
| 20260903164550 | 63 | 223 | 16.0 | 23.0 | 0.00 | 0.12 | 0.01 | 51 | 1010.0 |
| 20260903163044 | 61 | 188 | 16.0 | 21.0 | 0.00 | 0.12 | 0.01 | 55 | 1010.0 |
| 20260903161541 | 59 | 218 | 11.0 | 14.0 | 0.00 | 0.12 | 0.01 | 59 | 1009.9 |
| 20260903160041 | 60 | 217 | 11.0 | 16.0 | 0.00 | 0.12 | 0.01 | 57 | 1009.8 |
| 20260903154538 | 59 | 226 | 13.0 | 18.0 | 0.00 | 0.12 | 0.01 | 58 | 1010.0 |
| 20260903153040 | 59 | 208 | 15.0 | 23.0 | 0.00 | 0.12 | 0.01 | 58 | 1009.9 |
| 20260903151533 | 59 | 213 | 16.0 | 22.0 | 0.00 | 0.12 | 0.01 | 56 | 1009.8 |
| 20260903150031 | 58 | 198 | 18.0 | 24.0 | 0.00 | 0.12 | 0.01 | 57 | 1009.6 |
| 20260903144528 | 57 | 201 | 16.0 | 22.0 | 0.00 | 0.12 | 0.01 | 58 | 1009.4 |
| 20260903143026 | 57 | 202 | 17.0 | 24.0 | 0.00 | 0.12 | 0.01 | 59 | 1009.2 |
| 20260903141525 | 56 | 201 | 14.0 | 22.0 | 0.00 | 0.12 | 0.01 | 61 | 1009.2 |
| 20260903140038 | 55 | 196 | 12.0 | 18.0 | 0.00 | 0.12 | 0.01 | 62 | 1009.2 |
| 20260903134525 | 54 | 200 | 11.0 | 14.0 | 0.00 | 0.12 | 0.01 | 65 | 1009.1 |
| 20260903133021 | 54 | 219 | 13.0 | 19.0 | 0.00 | 0.12 | 0.01 | 65 | 1009.0 |
| 20260903131519 | 53 | 211 | 12.0 | 18.0 | 0.00 | 0.12 | 0.01 | 66 | 1008.7 |
| 20260903130017 | 53 | 195 | 12.0 | 20.0 | 0.00 | 0.12 | 0.01 | 65 | 1008.5 |
| 20260903124524 | 53 | 203 | 14.0 | 19.0 | 0.00 | 0.12 | 0.01 | 64 | 1008.4 |